[Iaude] MPEC V61: 2023 VR1 [a=1.04,e=0.31,i=2.7,H=25.8]
    mpec at marsden.cfa.harvard.edu 
    mpec at marsden.cfa.harvard.edu
       
    Mon Nov  6 06:43:32 EST 2023
    
    
  
M.P.E.C. 2023-V61                              Issued 2023 November 6, 11:41 UT
     The Minor Planet Electronic Circulars contain information on unusual
         minor planets, routine data on comets and natural satellites,
         and occasional editorial announcements.  They are published
    on behalf of Division F of the International Astronomical Union by the
          Minor Planet Center, Smithsonian Astrophysical Observatory,
                          Cambridge, MA 02138, U.S.A.
			  
             Prepared using the Tamkin Foundation Computer Network
                              MPC at CFA.HARVARD.EDU
            URL https://www.minorplanetcenter.net/    ISSN 1523-6714
                                    2023 VR1                                    
Observations:
     K23V01R*1C2023 11 04.36352203 08 40.441+13 55 50.05         20.36GVEV061G96
     K23V01R 1C2023 11 04.36871803 08 38.008+13 55 33.53         20.44GVEV061G96
     K23V01R 1C2023 11 04.37391003 08 35.556+13 55 16.75         20.24GVEV061G96
     K23V01R 1C2023 11 04.37909703 08 33.126+13 55 00.16         20.47GVEV061G96
     K23V01R mC2023 11 04.47113103 07 51.038+13 50 04.78         20.36GVEV061I52
     K23V01R mC2023 11 04.47187303 07 50.711+13 50 01.39         20.66GVEV061I52
     K23V01R mC2023 11 04.47261003 07 50.452+13 49 58.98         20.65GVEV061I52
     K23V01R KB2023 11 05.11952 03 03 43.95 +13 17 47.1          21.0 GXEV061H36
     K23V01R KB2023 11 05.13101 03 03 39.20 +13 17 15.4          20.5 GXEV061H36
     K23V01R KB2023 11 05.14249 03 03 34.49 +13 16 43.4          20.2 GXEV061H36
     K23V01R KC2023 11 05.18077503 03 20.05 +13 15 04.1          20.6 GXEV061858
     K23V01R KC2023 11 05.18893603 03 16.68 +13 14 41.2          20.2 GXEV061858
     K23V01R KC2023 11 05.19690703 03 13.43 +13 14 19.7          20.5 GXEV061858
     K23V01R KC2023 11 05.20149003 03 09.54 +13 14 02.2          20.4 GVEV061H21
     K23V01R KC2023 11 05.20428503 03 08.37 +13 13 54.2          20.5 GVEV061H21
     K23V01R KC2023 11 05.20708003 03 07.21 +13 13 46.3          20.5 GVEV061H21
     K23V01R KC2023 11 05.20987603 03 06.05 +13 13 38.2          20.3 GVEV061H21
     K23V01R KC2023 11 05.21267103 03 04.88 +13 13 30.4          20.7 GVEV061H21
     K23V01R KC2023 11 05.34505503 02 12.779+13 07 35.58         20.37GVEV061I52
     K23V01R KC2023 11 05.34714303 02 11.951+13 07 29.78         20.56GVEV061I52
     K23V01R KC2023 11 05.34807503 02 11.576+13 07 27.08         20.60GVEV061I52
     K23V01R 1C2023 11 05.35413003 02 09.085+13 07 10.09         20.18GVEV061G96
     K23V01R 1C2023 11 05.35929103 02 06.958+13 06 55.40         20.82GVEV061G96
     K23V01R 1C2023 11 05.36446003 02 04.852+13 06 41.08         20.27GVEV061G96
     K23V01R 1C2023 11 05.36963903 02 02.713+13 06 26.35         21.04GVEV061G96
     K23V01R KC2023 11 06.05658502 58 01.95 +12 35 51.8          20.2 GVEV061L01
     K23V01R KC2023 11 06.05889702 58 01.13 +12 35 45.4          20.1 GVEV061L01
     K23V01R KC2023 11 06.06142002 58 00.15 +12 35 38.8          20.5 GVEV061L01
Observer details:
858 Tebbutt Observatory, Edgewood.  Observer F. B. Zoltowski.  0.51-m f/8.1
    Schmidt-Cassegrain + CCD.
G96 Mt. Lemmon Survey.  Observer J. B. Fazekas.  Measurers E. C. Beshore, D.
    Fay, J. B. Fazekas, D. C. Fuls, A. R. Gibbs, A. D. Grauer, H. Groeller, J.
    K. Hogan, R. A. Kowalski, S. M. Larson, G. J. Leonard, D. Rankin, R. L.
    Seaman, F. C. Shelly, K. W. Wierzchos.  1.5-m reflector + 10K CCD.
H21 Astronomical Research Observatory, Westfield.  Observer R. Holmes.
    Measurers T. Linder, R. Holmes, L. Horn.  0.76-m f/3.0 astrograph + CCD.
H36 Sandlot Observatory, Scranton.  Observer G. Hug.  0.56-m f/4.8 reflector +
    CMO.
I52 Steward Observatory, Mt. Lemmon Station.  Observers D. Rankin, R. A.
    Kowalski.  Measurers E. C. Beshore, D. Fay, J. B. Fazekas, D. C. Fuls, A.
    R. Gibbs, A. D. Grauer, H. Groeller, J. K. Hogan, R. A. Kowalski, S. M.
    Larson, G. J. Leonard, D. Rankin, R. L. Seaman, F. C. Shelly, K. W.
    Wierzchos.  1.0-m prime focus + CCD.
L01 Visnjan Observatory, Tican.  Observer K. Korlevic.  1.0-m f/2.9 reflector
    + CCD.
Orbital elements:
2023 VR1                                                 Earth MOID = 0.0050 AU
Epoch 2023 Sept. 13.0 TT = JDT 2460200.5                Veres                   
M  27.29029              (2000.0)            P               Q                  
n   0.93226733     Peri.   73.13505     +0.34243791     +0.93911323             
a   1.0377890      Node   216.92944     -0.87896611     +0.30956264             
e   0.3108357      Incl.    2.70262     -0.33189584     +0.14912180             
P   1.06           H   25.86          G   0.15           U   7                  
Residuals in seconds of arc
231104 G96  0.0   0.0     231105 858  0.1-  0.5+    231105 I52  0.3+  0.1+
231104 G96  0.1+  0.1+    231105 858  0.5-  0.1-    231105 G96  0.2+  0.0
231104 G96  0.1-  0.1-    231105 858  0.3-  0.1+    231105 G96  0.0   0.2-
231104 G96  0.1-  0.1-    231105 H21  0.2+  0.3+    231105 G96  0.1+  0.0
231104 I52  0.4-  0.9+    231105 H21  0.1+  0.1+    231105 G96  0.3-  0.2-
231104 I52  0.4-  0.1-    231105 H21  0.1+  0.1-    231106 L01  0.1+  0.4+
231104 I52  0.6+  0.1-    231105 H21  0.1+  0.4-    231106 L01  0.3+  0.0
231105 H36  0.6+  0.2+    231105 H21  0.1-  0.4-    231106 L01  0.7-  0.1-
231105 H36  0.8-  0.1-    231105 I52  0.3-  0.1+
231105 H36  1.4-  0.7-    231105 I52  0.2+  0.2+
Ephemeris:
2023 VR1                 a,e,i = 1.04, 0.31, 3                   q = 0.7152
Date    TT    R. A. (2000) Decl.     Delta      r    Elong.  Phase     V
2023 10 07    12 44 33.1 +06 16 20   0.09562 0.9062    11.5   167.3
...
2023 10 22    09 11 46.6 +28 04 52   0.03010 0.9888    76.4   102.0    22.0
...
2023 10 30    04 10 33.8 +20 50 38   0.04361 1.0317   151.4    27.4    20.4
...
2023 11 05    03 04 24.7 +13 24 33   0.07165 1.0629   173.3     6.2    20.8
2023 11 06    02 58 24.2 +12 39 21   0.07680 1.0680   175.0     4.6    20.8
2023 11 07    02 53 10.2 +11 59 35   0.08205 1.0730   175.6     4.1    21.0
...
2023 11 13    02 32 26.8 +09 20 26   0.1153  1.1027   167.6    11.2    22.1
...
2023 11 21    02 19 58.9 +07 47 33   0.1637  1.1401   156.6    20.2    23.2
...
2023 12 06    02 16 15.7 +07 28 02   0.2660  1.2032   140.7    31.2    24.7
M. P. C. Staff               (C) Copyright 2023 MPC           M.P.E.C. 2023-V61
    
    
More information about the Iaude
mailing list